User: anonymous
Location: The Jewett Observatory
(46.7288°N, 117.1525°W)
Time: 19:18:32
(UTC-07:00)
Language:

Cosmos 1844 Rocket - Orbit

View from above orbital plane
View from above orbital plane
View from above satellite
View from above satellite

Ground track
Ground track

The orbit data is extracted from the following two-line orbital elements,

1 17974U 87041B   14245.61670383  .00000247  00000-0  14613-3 0  1913
2 17974 071.0065 255.7215 0012657 156.8772 335.7809 14.17107916412372
Epoch (UTC): 02 September 2014 14:48:03
Eccentricity: 0.0012657
inclination: 71.0065°
perigee height: 826 km
apogee height: 844 km
right ascension of ascending node: 255.7215°
argument of perigee: 156.8772°
revolutions per day: 14.17107916
mean anomaly at epoch: 335.7809°
orbit number at epoch: 41237

The dashed part of the orbit path shows where the satellite is in the earth's shadow,  

DLR